SKYSAT-C8 (42990 NORAD) Tracking and Keplerian Element Data

This shows tracking and keplerian element data for the satellite.

Feedback or suggestion? Click here.




ElementValue
Catalog42990
NameSKYSAT-C8
Epoch Orbit5742
Epoch Day317.79325112
Epoch Year2018
RAAN69.6104
Inclination97.4173
Eccentricity0.0004871
Argument of Perigee325.2204
Mean Anonmoly157.452
Mean Motion15.21600074
Decay Rate6.99E-06
L11 42990U 17068D 18317.79325112 .00000699 00000-0 34039-4 0 9993
L22 42990 97.4173 69.6104 0004871 325.2204 157.4520 15.21600074 57429

Live tracking and technical data element details for SKYSAT-C8 (NORAD 42990). SKYSAT-C8 can be tracked NOW for your location showing map with azimuth and elevation plus other details from your city location.

Track the satellite on the map from your city or location and see movement details for azimuth, elevation, latitude, longitude, range, height, and movement on the map or in text.







IsCatalogInMostPopularTable: catalog: 42990, numindb: 145
Update: records affected: 1



GetName: 42990 SKYSAT-C8

Hit Count: updated at: Wed, 14 Nov 2018 11:11:34 GMT